Location: Caltech
(34.1382°N, 118.1253°W)
Time: 13:41:57
(UTC-07:00)

HO-68 - Visible Passes

Search period start: 23 May 2017 00:00
Search period end: 02 June 2017 00:00
Orbit: 1193 x 1204 km, 100.1° (Epoch: 22 May)

Date Brightness Start Highest point End Pass type
(mag) Time Alt. Az. Time Alt. Az. Time Alt. Az.
23 May ? 21:10:19 10° SW 21:14:55 18° W 21:19:33 10° NW visible
24 May ? 20:52:10 10° SSW 20:57:49 25° W 21:03:31 10° NW visible
25 May ? 20:34:25 10° SSW 20:40:46 34° W 20:47:10 10° NW visible
26 May ? 20:16:57 10° S 20:23:44 46° W 20:30:36 10° NNW visible
28 May ? 21:37:25 10° W 21:38:24 10° W 21:39:24 10° W visible
29 May ? 21:17:16 10° SW 21:21:15 16° W 21:25:16 10° WNW visible
30 May ? 20:58:51 10° SW 21:04:08 22° W 21:09:27 10° NW visible
31 May ? 20:40:58 10° SSW 20:47:03 30° W 20:53:13 10° NW visible
01 Jun ? 20:23:23 10° SSW 20:30:02 40° W 20:36:43 10° NNW visible
